Theta_e
340 341 340 337 333 332 334 333 334 333 334 332 332 332 332 331 331 332 338 329 336 342 343 343 344 343 341 340 340 340 340 340 340 339 338 336 335 333 331 329 329 328 326
340 341 338 333 328 331 334 332 332 331 331 329 327 328 328 327 327 328 332 338 331 336 340 342 342 343 342 340 341 340 340 339 339 338 336 333 331 329 328 328 327 325 328
338 337 334 330 327 327 329 328 327 325 325 324 326 328 325 324 324 325 328 337 337 329 332 342 342 342 342 341 342 341 340 338 337 336 334 331 329 328 327 325 324 323 323
337 337 330 328 324 324 324 322 322 321 320 321 324 323 324 321 320 322 324 331 336 337 335 337 340 341 341 341 342 341 339 337 336 335 333 330 328 326 325 325 322 322 324
333 333 333 328 324 322 322 320 319 320 317 316 316 316 315 316 316 319 324 326 329 332 336 334 332 334 336 340 340 340 339 337 335 333 331 329 327 325 325 323 321 322 322
331 329 325 323 325 319 319 319 317 317 315 314 312 312 313 314 317 320 323 323 326 328 330 338 337 336 332 336 338 339 338 336 334 332 329 327 326 325 324 323 321 321 320
330 326 323 321 320 321 317 318 316 313 311 314 312 311 312 314 317 318 320 321 322 323 324 335 336 336 333 333 336 337 336 334 332 330 327 326 325 324 323 321 320 320 320
328 324 322 319 319 319 317 316 314 312 312 315 318 317 312 314 314 316 316 316 316 319 322 325 334 335 335 333 332 332 333 332 331 329 327 325 324 323 322 321 320 320 319
326 324 322 320 319 318 315 316 315 316 312 313 323 323 313 315 312 312 313 312 312 313 315 318 328 332 333 332 329 328 327 329 329 329 327 326 324 323 322 320 319 318 317
325 323 322 320 320 319 316 315 316 318 319 313 317 320 319 321 316 310 310 312 310 309 311 313 320 330 332 333 325 322 322 325 329 328 327 326 324 323 322 321 319 318 316
325 324 323 321 319 319 318 317 315 316 320 318 318 317 316 318 320 318 311 310 308 308 307 310 313 316 327 329 326 322 321 325 329 327 326 325 324 323 322 320 319 317 316
324 323 322 321 321 319 318 317 317 316 317 319 319 319 318 317 316 317 315 311 311 309 307 308 309 312 317 324 322 317 318 323 326 327 326 325 323 322 321 319 318 317 315
322 321 321 320 320 319 319 318 316 315 315 317 318 318 320 320 321 320 318 311 308 306 307 307 308 309 312 317 321 314 315 320 323 326 326 325 322 322 320 319 318 316 315
322 323 321 321 320 320 319 318 316 316 316 316 316 317 315 317 319 319 319 313 305 303 305 308 306 307 309 313 318 311 318 316 320 324 325 325 323 321 320 318 317 315 314
322 323 322 321 320 320 319 317 316 315 316 315 316 316 315 315 316 317 320 319 316 304 304 309 306 308 310 312 316 319 320 313 316 318 321 320 320 319 318 317 316 315 313
308 321 321 321 320 319 318 317 316 316 315 316 316 315 315 315 315 314 314 319 321 319 313 315 310 313 313 311 314 317 320 309 313 315 315 314 316 315 315 315 314 314 313
301 305 311 320 320 319 318 316 315 315 314 314 315 315 314 315 315 314 313 315 316 319 315 318 318 315 314 311 311 313 316 316 315 312 314 313 314 313 313 313 312 312 311
298 299 302 306 315 319 319 317 315 314 313 312 313 313 313 313 313 313 312 310 314 315 316 313 309 312 311 314 314 312 312 313 314 311 312 312 312 312 312 311 310 309 308
293 295 298 300 303 305 314 318 317 315 315 315 314 313 313 313 312 312 310 310 310 312 311 314 312 307 307 310 311 311 311 311 310 308 310 311 312 311 311 310 309 307 306
290 291 293 294 297 300 303 304 314 316 316 315 315 315 314 314 313 312 311 310 310 310 310 309 312 298 302 303 306 305 304 306 308 308 307 309 310 309 309 309 307 305 304
287 289 289 291 292 294 298 297 299 301 311 315 315 315 316 313 309 312 312 310 310 308 308 307 307 296 297 294 297 301 302 303 303 306 305 306 307 307 307 307 305 303 303
286 287 287 288 289 290 293 295 297 297 300 303 312 313 314 306 307 307 308 308 310 309 307 306 305 301 301 299 300 302 301 300 295 302 301 302 305 304 305 305 305 303 303
285 285 286 286 286 288 290 292 294 295 296 297 300 309 311 312 308 312 307 306 307 307 309 310 306 307 305 304 304 300 300 301 302 306 300 300 302 301 303 303 304 303 302
284 284 285 285 286 287 289 291 292 292 294 295 297 300 304 309 310 310 310 309 308 309 308 309 311 311 311 311 305 304 304 302 301 294 299 296 300 298 301 300 302 302 301
284 284 284 285 284 285 288 289 290 291 291 291 293 295 297 300 303 304 307 306 307 307 308 306 307 308 308 307 308 303 299 297 295 288 294 296 292 293 295 293 296 300 300
282 283 283 285 285 284 287 289 289 289 288 289 291 292 294 296 298 300 302 304 302 304 306 306 304 304 304 306 303 303 301 295 296 291 290 293 288 290 285 288 291 295 297
Wind_Speed
10 11 9 9 7 8 9 8 8 7 8 8 6 6 6 6 5 3 3 8 7 8 10 11 13 14 14 14 14 13 13 16 19 19 18 18 17 16 16 15 14 14 12
9 11 10 9 8 8 7 8 8 7 7 7 7 6 5 5 4 4 2 4 6 5 6 10 12 14 15 15 14 14 14 17 18 18 17 18 15 16 15 15 14 13 13
11 12 10 9 7 7 9 8 8 7 7 6 8 6 5 4 3 4 2 2 4 3 4 9 11 14 15 16 16 15 16 17 18 18 17 16 15 16 14 14 13 12 11
12 12 9 9 8 8 8 7 8 7 7 6 6 5 4 3 3 3 2 1 1 2 4 6 8 13 14 16 17 17 19 18 18 18 17 15 14 14 14 13 12 10 12
12 8 10 8 11 7 7 8 7 8 7 7 6 4 4 2 2 1 1 2 2 3 4 6 7 8 9 13 17 19 19 19 19 18 16 15 14 13 13 13 11 11 11
13 10 8 10 9 8 7 6 9 6 6 7 6 5 3 2 1 1 2 2 3 4 4 7 6 7 10 14 17 19 21 20 19 18 16 15 15 14 13 13 12 11 10
13 11 9 11 9 10 9 9 8 10 4 6 6 4 2 1 2 2 2 2 4 4 5 5 4 5 4 10 16 18 18 18 17 17 17 16 15 14 13 12 11 10 10
15 12 12 10 10 8 11 11 11 6 3 8 5 5 4 3 3 3 3 3 5 4 5 4 6 9 7 5 9 14 17 18 18 18 18 17 15 15 13 13 11 11 10
13 13 13 12 12 10 9 12 11 12 6 7 9 4 4 6 3 3 4 3 4 3 4 4 5 8 9 7 10 11 14 16 19 19 19 17 16 15 14 13 12 11 10
14 13 14 14 13 10 12 11 10 9 9 10 6 6 4 4 5 4 3 4 4 4 4 2 4 8 11 9 11 12 13 13 18 19 18 18 16 16 15 14 13 12 11
14 15 15 15 13 10 12 14 13 12 9 10 10 7 6 4 4 3 4 4 3 5 3 3 3 3 10 11 8 10 14 14 18 19 18 17 17 16 15 14 14 13 12
9 13 14 14 14 13 13 13 14 15 12 10 10 10 10 7 8 5 3 4 5 3 3 3 4 3 3 8 11 13 15 15 17 19 20 18 17 16 15 14 14 14 13
8 11 13 13 12 14 14 12 13 14 14 11 12 10 10 10 5 8 6 4 3 3 3 5 4 3 3 4 9 12 14 15 16 19 20 20 18 18 18 16 14 14 14
8 11 12 12 14 14 13 14 11 12 14 12 14 11 8 8 8 7 6 6 3 3 4 4 4 5 4 5 8 15 12 15 15 19 21 19 19 19 19 19 18 15 14
3 8 13 13 13 12 13 13 11 14 14 14 14 13 10 9 7 7 8 9 7 6 10 9 6 9 7 6 9 14 13 16 16 14 13 9 13 19 20 20 19 18 16
13 6 12 13 13 13 14 13 12 12 13 12 12 14 12 10 9 8 7 9 10 9 9 11 10 9 14 9 10 14 15 13 21 22 19 14 13 11 16 18 19 20 17
11 11 12 9 12 13 14 13 13 12 13 13 12 14 15 15 11 10 9 9 10 10 10 6 10 11 15 14 11 13 13 13 12 19 21 19 21 22 18 17 18 19 20
8 9 12 8 6 11 13 15 15 13 16 17 16 14 15 11 15 14 11 13 13 12 11 14 8 9 13 17 16 15 13 10 12 16 18 21 23 24 26 25 24 22 21
7 9 10 11 10 8 9 13 16 16 16 17 18 18 19 18 16 13 13 13 12 11 12 11 9 8 10 9 14 14 14 14 11 11 18 21 24 25 26 27 27 26 25
10 8 8 9 10 11 9 10 10 17 16 17 19 19 18 18 19 18 15 16 15 13 13 12 11 5 6 8 9 11 11 10 12 11 13 16 19 24 26 27 27 26 25
9 9 8 7 8 9 7 10 9 8 10 18 18 18 18 20 23 23 14 15 15 13 12 11 12 5 6 5 13 9 13 11 11 11 11 12 12 13 15 24 22 27 26
9 8 10 9 9 6 14 17 13 9 8 9 12 15 17 18 19 23 27 25 20 17 17 13 13 11 17 12 9 13 12 11 10 11 13 14 13 14 14 15 27 29 29
9 8 7 8 9 9 12 17 17 10 8 7 8 11 12 12 17 18 25 27 26 28 27 19 17 19 18 17 15 15 16 17 15 10 18 16 13 16 14 14 27 29 30
8 9 9 8 9 9 15 15 18 11 9 9 9 9 11 10 14 16 18 17 20 21 21 18 20 21 20 18 19 22 23 22 10 1 13 12 10 12 11 11 26 29 31
9 8 9 9 9 11 16 16 14 10 10 10 9 9 10 13 14 13 17 18 17 17 20 29 31 28 26 24 19 12 13 10 10 4 10 8 6 9 8 9 10 28 30
9 8 9 8 10 10 14 17 14 7 10 9 9 9 14 14 19 21 12 14 16 18 15 14 15 21 18 18 23 20 15 14 13 6 9 11 6 7 4 5 10 12 15
Wind_Direction
159 160 154 154 149 146 165 152 155 151 147 132 136 132 118 92 84 90 92 48 50 157 150 159 158 157 154 155 152 145 137 129 124 120 113 105 99 100 94 90 89 90 87
158 166 164 154 147 157 162 157 152 151 141 138 128 127 108 84 72 70 72 122 42 45 186 178 175 172 164 163 160 156 149 138 127 122 114 110 110 102 95 98 97 94 90
167 162 162 154 145 146 150 153 143 140 134 135 136 145 109 86 70 71 27 133 160 101 347 193 193 186 179 172 172 162 157 147 134 124 120 120 119 110 106 103 102 92 91
172 164 159 154 142 145 154 157 152 142 137 142 146 129 112 86 58 53 47 335 218 228 201 239 222 193 192 181 169 160 149 141 132 126 129 127 119 116 114 109 104 98 101
159 160 163 152 151 148 158 159 152 149 148 136 126 110 88 63 34 308 218 215 257 268 264 199 212 194 188 180 172 157 146 143 136 133 134 130 128 127 123 124 116 109 101
161 154 147 151 157 149 157 159 148 141 143 136 125 111 106 98 302 272 253 281 281 265 270 252 188 185 188 190 168 159 152 148 145 143 145 139 137 133 137 130 124 120 113
163 158 153 157 158 165 161 160 142 136 126 148 120 106 91 105 199 244 262 259 257 261 264 261 198 184 195 179 171 161 153 150 155 153 150 147 146 142 140 133 131 126 125
171 160 164 160 161 166 165 168 157 151 122 189 166 156 167 187 221 229 244 249 253 255 254 257 210 195 180 173 173 159 163 168 168 159 158 154 153 149 150 147 146 139 138
172 164 171 165 170 170 177 176 175 174 155 204 213 194 170 211 147 194 231 242 253 250 245 259 207 190 173 173 163 165 162 174 171 168 166 163 163 160 158 159 159 149 144
172 171 172 173 178 179 178 182 185 188 169 178 212 227 281 117 193 186 222 229 242 239 233 247 222 195 181 179 175 172 167 175 176 176 172 171 170 168 174 167 170 168 159
180 181 181 179 180 188 184 183 184 195 194 183 201 181 211 198 214 166 181 198 244 231 226 235 224 239 188 180 178 170 171 182 184 183 180 177 180 180 181 184 179 175 173
181 185 182 183 187 186 189 188 188 194 198 200 197 201 203 191 194 182 169 185 210 215 221 239 233 223 216 188 182 167 173 178 183 187 187 189 185 183 191 193 188 190 186
189 188 184 189 191 193 193 192 191 195 203 205 199 207 217 223 209 213 211 147 178 188 217 227 224 234 235 223 188 168 182 185 184 192 194 194 194 189 189 192 195 197 196
198 177 193 199 197 200 196 194 194 201 203 210 211 211 210 221 208 203 207 163 159 202 219 220 192 216 216 213 199 190 186 190 193 200 205 208 197 194 192 189 187 200 204
206 192 195 195 199 202 205 199 201 201 201 207 213 212 212 215 214 219 223 203 189 189 218 213 191 200 210 202 215 197 198 186 187 193 211 218 213 195 193 193 187 185 204
349 246 198 205 202 195 198 204 210 211 214 213 213 210 215 218 213 216 211 219 219 220 226 201 206 182 199 205 203 211 212 190 196 191 193 192 183 196 193 193 192 187 192
353 336 327 222 210 204 200 201 203 202 214 226 218 217 213 220 220 210 211 223 223 217 221 200 203 194 196 202 204 207 217 212 212 209 200 189 180 181 191 199 195 196 183
355 347 330 329 304 216 210 213 207 205 203 209 215 216 222 219 223 223 214 206 218 223 221 220 186 192 208 205 204 201 211 217 222 204 211 196 190 190 190 191 192 192 191
360 9 335 337 327 332 289 218 218 216 220 226 217 210 213 218 221 221 215 215 206 222 221 227 201 193 205 203 211 207 210 214 222 216 211 206 201 196 194 198 196 194 193
346 4 342 338 327 319 307 351 265 223 221 223 223 223 220 217 219 217 218 218 217 207 214 220 217 169 184 193 208 205 210 213 215 212 218 214 205 203 202 201 201 198 196
339 338 341 348 324 336 329 343 332 320 280 232 224 224 223 221 222 221 215 214 213 215 220 215 222 179 182 171 199 196 214 209 220 211 216 210 207 207 211 210 208 201 198
351 348 336 333 341 336 325 325 323 307 296 300 247 231 230 224 225 221 220 217 207 211 216 212 221 215 212 208 193 207 206 207 212 203 211 219 206 212 211 210 206 203 199
332 335 324 335 332 327 326 322 317 304 294 284 294 284 241 234 221 224 229 227 222 217 217 212 218 221 221 210 205 206 206 210 224 199 200 221 203 215 209 212 207 203 201
331 330 328 320 320 317 319 324 320 305 294 288 281 281 289 266 234 225 231 229 231 231 226 223 224 225 224 219 211 213 211 220 223 172 191 222 198 219 211 209 205 202 198
323 321 318 321 321 315 323 331 331 313 301 299 294 285 287 287 280 261 238 233 237 236 232 228 231 232 230 219 204 209 228 204 213 206 199 200 177 198 200 212 215 202 199
298 305 303 303 305 315 321 329 334 322 311 308 303 303 294 282 286 283 275 253 239 235 230 233 228 238 239 231 208 198 202 207 218 198 202 199 169 162 194 219 200 210 196